TIME,DELAY(SENSOR),PRES,OXYGEN,RAWTEMP,T(OPTODE),TCPHASE,FLUOR,BETA(BETA700),BETA(BETA412),BETA(BETA440),CDOM,C(CSC),ED(ED411.90),ED(ED443.80),ED(ED489.40),ED(ED554.70),LU(LU412.20),LU(LU443.80),LU(LU489.40),LU(LU555.00),COMP,TILTX,TILTY,CHECK
1353362352,5807,861.4799804687500000,152.8585968017578000,409.3635864257812500,10.3170995712280270,39.6838417053222660,53,109,59,58,65,13546,2146960054,2147516900,2147283602,2147501001,2147089728,2146934180,2147703067,2147124251,1333,-1,9,25716
1353365948,5806,988.2600097656250000,177.7828979492187500,472.0184936523437500,8.3950729370117190,38.8692893981933600,52,102,59,58,66,13551,2146960960,2147519917,2147290770,2147516068,2147091117,2146927661,2147711926,2147122761,2705,-1,9,38268
1353369548,5807,1002.8099975585938000,190.9844055175781200,487.3338928222656000,7.9219207763671875,38.2480201721191400,52,99,58,58,67,13554,2146963949,2147516891,2147292982,2147516525,2147094418,2146922185,2147717339,2147122825,3420,-1,9,17172
1353373148,5808,1011.4099731445312000,193.8899993896484400,488.2240905761719000,7.8943758010864260,38.0779113769531250,52,98,59,58,66,13550,2146963766,2147518957,2147292900,2147515977,2147089901,2146928155,2147720630,2147120484,252,-1,9,55694
1353376748,5802,1017.0399780273438000,194.3479003906250000,489.0635986328125000,7.8683919906616210,38.0632591247558600,52,101,59,58,65,13549,2146961042,2147517851,2147294747,2147516982,2147094848,2146929810,2147716726,2147124141,3187,-1,9,16829
1353380348,5808,1014.2299804687500000,193.9810028076172000,489.9519958496094000,7.8408899307250980,38.1019706726074200,52,99,59,58,65,13550,2146959917,2147519469,2147295341,2147516278,2147094326,2146928018,2147717979,2147121316,323,-1,8,65251
1353383948,5806,1015.9099731445312000,194.3065948486328000,491.3876037597656000,7.7964401245117190,38.1053390502929700,52,101,59,59,67,13553,2146962624,2147518445,2147295844,2147513398,2147091529,2146930953,2147714486,2147121517,274,-1,9,5638
1353387548,5806,1016.9299926757812000,194.1963958740234400,492.0140075683594000,7.7770419120788570,38.1240806579589840,52,99,59,57,66,13553,2146962075,2147522230,2147292818,2147514578,2147094299,2146931894,2147718189,2147122752,396,-1,9,2614
1353391148,5806,1019.5700073242188000,195.6676940917968800,491.8559875488281000,7.7819371223449710,38.0278511047363300,52,99,59,57,66,13551,2146959204,2147517037,2147294235,2147517165,2147091638,2146925686,2147713828,2147121270,3073,-1,9,17801
1353394748,5805,1024.8299560546875000,195.2120971679687500,490.6738891601562500,7.8185410499572750,38.0363883972168000,52,101,59,58,66,13547,2146960064,2147517293,2147295990,2147516333,2147095277,2146925302,2147712420,2147121417,2466,-1,9,54212
1353398348,5806,1021.7100219726562000,195.4597930908203000,491.4873046875000000,7.7933511734008790,38.0345497131347660,52,102,58,58,65,13517,2146963520,2147521097,2147294390,2147518710,2147093440,2146926308,2147717019,2147122450,3288,-1,9,32175
1353401948,5806,1019.9799804687500000,195.7059936523437500,492.0822143554687500,7.7749300003051760,38.0287895202636700,53,107,58,57,65,13519,2146961819,2147520118,2147295588,2147519250,2147090541,2146926052,2147713005,2147120274,3432,-1,9,38908
1353405548,5805,1024.0899658203125000,195.9523925781250000,491.3847961425781000,7.7965278625488280,38.0011291503906250,53,100,59,57,66,13516,2146961709,2147519451,2147296960,2147519213,2147091053,2146925842,2147713380,2147124324,3509,-1,9,15893
1353409148,5806,1024.0699462890625000,196.4510040283203000,492.3923034667969000,7.7653241157531740,37.9874610900878900,52,102,59,57,65,13518,2146962377,2147515355,2147295606,2147518134,2147090962,2146925065,2147714121,2147122669,333,-1,8,53252
1353412748,5808,1021.4299926757812000,195.9304962158203000,493.7604064941406000,7.7229409217834470,38.0436210632324200,52,101,58,57,66,13518,2146959186,2147519542,2147295570,2147515163,2147088896,2146926400,2147714706,2147122660,542,-1,8,30874
1353416348,5806,1020.2000122070312000,197.6179046630859400,494.1404113769531000,7.7111701965332030,37.9443016052246100,52,107,57,57,66,13513,2146963008,2147520137,2147293504,2147516836,2147093293,2146930541,2147713197,2147122971,2972,-1,9,37946
1353419948,5806,1022.8800048828125000,197.5843963623047000,494.1146850585937500,7.7119650840759280,37.9464988708496100,52,101,58,58,65,13515,2146960374,2147518025,2147297700,2147514614,2147094829,2146928704,2147715510,2147122651,3051,-1,9,48560
1353423548,5804,1018.0100097656250000,198.7617950439453000,496.0924987792969000,7.6506700515747070,37.9074096679687500,52,101,59,58,66,13506,2146963748,2147518061,2147293028,2147515666,2147090194,2146928100,2147718189,2147124196,3476,-1,9,48998
1353427148,5807,1020.1900024414062000,199.6356048583984400,497.1925964355469000,7.6165637969970700,37.8728981018066400,53,101,60,57,65,13509,2146961234,2147520192,2147294089,2147515949,2147091465,2146930971,2147717796,2147124242,433,-1,9,48624
1353430748,5807,1022.0100097656250000,199.2118072509765600,496.8254089355469000,7.6279478073120120,37.8923797607421900,52,99,59,57,66,13507,2146963876,2147515739,2147297398,2147518646,2147090422,2146931145,2147720283,2147119990,3528,-1,9,29584
1353434348,5809,1020.5000000000000000,198.1759948730468800,497.4653015136719000,7.6081089973449710,37.9675102233886700,52,101,58,57,65,13510,2146964955,2147522331,2147295926,2147512548,2147093668,2146929014,2147718619,2147122377,449,-1,9,28394
1353437948,5806,1024.8599853515625000,197.1546020507812500,497.5708923339844000,7.6048340797424320,38.0331611633300800,52,100,59,57,65,13506,2146962313,2147518363,2147294793,2147515785,2147092169,2146923684,2147715154,2147121316,373,-1,9,45059
1353441548,5805,1022.3499755859375000,197.8305969238281200,497.1976928710937500,7.6164059638977050,37.9843902587890600,52,99,59,58,65,13505,2146963117,2147519021,2147295094,2147517961,2147092105,2146928137,2147716187,2147121773,3564,-1,9,15539
1353445148,5806,1021.2299804687500000,198.6773986816406200,497.1135864257812500,7.6190128326416020,37.9308090209960940,52,101,59,58,65,13501,2146962669,2147520868,2147296566,2147515922,2147093238,2146929984,2147718921,2147119579,3474,-1,9,28173
1353448748,5805,1021.2700195312500000,199.0187988281250000,496.8414916992187500,7.6274499893188480,37.9042396545410160,52,101,59,58,65,13505,2146963081,2147516982,2147294400,2147518025,2147091108,2146923574,2147716160,2147124361,3039,-1,9,48839
1353452348,5808,1021.6599731445312000,197.8807067871093800,496.6856994628906000,7.6322798728942870,37.9729995727539060,53,102,59,57,66,13504,2146960996,2147518226,2147295186,2147518930,2147092361,2146928256,2147716681,2147120969,3484,-1,9,19204
1353455948,5807,1026.2900390625000000,197.5213012695312500,496.5669860839844000,7.6359610557556150,37.9929313659668000,52,100,59,59,65,13503,2146961664,2147522633,2147295433,2147516699,2147091730,2146933622,2147719104,2147124443,125,-1,8,4097
1353459548,5804,1030.6700439453125000,197.2512054443359400,495.6029052734375000,7.6658458709716800,37.9930686950683600,52,105,59,58,66,13497,2146960301,2147520356,2147294427,2147514724,2147090834,2146926628,2147716315,2147122048,3441,-1,9,45755
1353463148,5805,1028.3699951171875000,197.1148071289062500,495.1307067871094000,7.6804790496826170,37.9935417175293000,53,103,59,58,64,13502,2146958857,2147517860,2147292900,2147514441,2147089051,2146924123,2147716635,2147120411,3172,-1,9,905
1353466748,5804,1026.0000000000000000,198.6645965576172000,496.5880126953125000,7.6353101730346680,37.9221115112304700,53,102,59,58,66,13500,2146960950,2147519506,2147296338,2147515574,2147093440,2146929929,2147717110,2147121371,2159,-1,9,8786
1353470348,5805,1024.9200439453125000,199.0372924804687500,496.5830993652344000,7.6354598999023440,37.8995094299316400,52,100,59,57,66,13499,2146961005,2147517101,2147295707,2147518180,2147092580,2146927158,2147718628,2147121609,2125,-1,9,9438
1353473948,5807,1022.4899902343750000,198.2904052734375000,496.9779968261719000,7.6232190132141110,37.9526596069335940,53,106,60,56,66,13475,2146963309,2147520850,2147295762,2147512704,2147091008,2146929700,2147717202,2147120758,3352,-1,9,6528
1353477548,5806,1021.1799926757812000,198.4407043457031200,496.9162902832031000,7.6251311302185060,37.9419898986816400,52,99,58,59,65,13475,2146961060,2147513956,2147295021,2147517686,2147094491,2146930989,2147717339,2147124370,3358,-1,9,25390
1353481148,5807,1017.3599853515625000,200.9463958740234400,500.1431884765625000,7.5250501632690430,37.8433303833007800,53,99,59,58,65,13474,2146963291,2147518601,2147297298,2147517257,2147090852,2146926646,2147721499,2147123053,163,-1,9,34620
1353484748,5808,1020.6400146484375000,201.3489990234375000,500.0477905273437500,7.5280098915100100,37.8164901733398440,53,101,58,57,66,13458,2146962816,2147518701,2147298148,2147521024,2147090779,2146931017,2147721545,2147123520,171,-1,9,28856
1353488348,5806,1014.4699707031250000,201.4819030761718800,502.1879882812500000,7.4615979194641110,37.8464202880859400,51,103,59,58,64,13475,2146959488,2147517440,2147296804,2147519085,2147090861,2146927853,2147722313,2147123584,450,-1,9,38511
1353491948,5804,1018.9299926757812000,201.7848968505859400,501.4193115234375000,7.4854550361633300,37.8144111633300800,52,97,57,58,66,13472,2146962706,2147518692,2147296109,2147519570,2147091986,2146923958,2147717193,2147122660,3478,-1,9,12619
1353495548,5805,1023.8599853515625000,200.9615020751953000,500.3252868652344000,7.5194029808044430,37.8457107543945300,53,101,57,57,65,13471,2146960329,2147521188,2147296457,2147515538,2147092406,2146929280,2147718555,2147124123,3261,-1,9,59815
1353499148,5807,1026.1800537109375000,200.9797058105468800,499.3960876464844000,7.5482292175292970,37.8281707763671900,52,100,58,57,66,13469,2146960109,2147518582,2147294016,2147517942,2147093165,2146930605,2147715913,2147125458,1140,-1,9,48745
1353502748,5805,1027.1300048828125000,200.6398925781250000,499.1318969726562500,7.5564231872558590,37.8439903259277340,52,102,58,58,65,13471,2146961179,2147521636,2147293568,2147515785,2147092150,2146930011,2147720292,2147120932,893,-1,9,60891
1353506348,5809,1025.6300048828125000,200.0173950195312500,499.4193115234375000,7.5475091934204100,37.8878898620605500,52,176,59,57,66,13468,2146959213,2147520256,2147295844,2147518390,2147091419,2146921088,2147715986,2147119789,21,-1,8,14588
1353507055,5805,1025.7700195312500000,199.7162933349609400,499.4248962402344000,7.5473361015319820,37.9060592651367200,52,101,57,57,64,13505,2146965586,2147518857,2147292973,2147515392,2147089600,2146923392,2147718198,2147124845,3498,-1,9,16577
